Regional Weather Roundup
Issued by NWS Jackson, KY

Home | Current Version | Previous Version | Graphics & Text | Print | Product List | Glossary On
Versions: 1 2 3 4 5 6 7 8 9 10 11 12 13 14 15 16 17 18 19 20 21 22 23 24 25 26 27 28 29 30 31 32 33 34 35 36 37 38 39 40 41 42 43 44 45 46 47 48 49 50
000
ASUS43 KJKL 031910
RWRJKL

EAST KENTUCKY HOURLY WEATHER ROUNDUP
NATIONAL WEATHER SERVICE JACKSON KY
200 PM EST TUE MAR 03 2015

NOTE: "FAIR" INDICATES FEW OR NO CLOUDS BELOW 12,000 FEET WITH
NO SIGNIFICANT WEATHER AND/OR OBSTRUCTIONS TO VISIBILITY.

* THESE REPORTS ARE NOT UNDER NWS QUALITY CONTROL AND MAY NOT
  REPORT WEATHER SUCH AS PRECIPITATION AND FOG.

KYZ079-080-083-085-087-088-110-112-115-119-120-032000
...EASTERN KENTUCKY...

CITY           SKY/WX    TMP DP  RH WIND       PRES   REMARKS
JACKSON        CLOUDY    55  46  71 VRB6      29.95F
LONDON         CLOUDY    57  48  72 S8        29.99F
SOMERSET*      CLOUDY    59  52  77 SW10G16   29.99F
MONTICELLO*    CLOUDY    61  55  80 S12       30.00F
MIDDLESBORO*   DRIZZLE   43  41  94 CALM      30.07F
HAZARD APT*    CLOUDY    61  52  72 SW15G23   29.98
BLACK MTN*       N/A     43  43 100 SW8         N/A
PIKEVILLE APT* CLOUDY    57  48  72 S9        29.96F
BIG SANDY*     CLOUDY    55  46  71 S8        29.95F
MOREHEAD APT*  CLOUDY    48  46  93 S12       29.93F
$$

KYZ035-036-041-042-044-050-067-078-099-032000
...CENTRAL KENTUCKY...

CITY           SKY/WX    TMP DP  RH WIND       PRES   REMARKS
MT STERLING*   RAIN      50  48  93 SW14G21   29.91F
FLEMING/MASON* CLOUDY    43  41  93 S12       29.88F FOG
DANVILLE*      CLOUDY    50  50 100 SW13      29.94F
RICHMOND*      CLOUDY    54  50  87 S10       29.94F
LEXINGTON      CLOUDY    53  51  93 S20G25    29.89F
FRANKFORT      CLOUDY    54  50  86 SW14      29.86F
$$

KYZ091>093-OHZ055-061-077-WVZ005-015-034-035-042-032000
...SOUTHERN OHIO/WEST VIRGINIA...

CITY           SKY/WX    TMP DP  RH WIND       PRES   REMARKS
COVINGTON      LGT RAIN  42  41  96 SW13G21   29.81F VSB 1/4
COLUMBUS       HVY RAIN  33  31  92 S7        29.82F FOG     WCI  27
DAYTON         LGT RAIN  37  35  92 S16       29.76F FOG     WCI  28
WILMINGTON     CLOUDY    38  36  92 S22       29.79F FOG     WCI  27
HUNTINGTON     CLOUDY    44  41  89 S10       29.90F
CHARLESTON     LGT RAIN  50  43  77 S9        29.93F
PINEVILLE*     CLOUDY    44  39  85 MISG      30.06F
BECKLEY        CLOUDY    40  32  73 SE12      30.02F WCI  33
BLUEFIELD      CLOUDY    46  36  68 SE6       30.06F
$$

VAZ002-007-008-TNZ017-027-036-066-071-032000
...SOUTHWEST VIRGINIA/EAST TENNESSEE...

CITY           SKY/WX    TMP DP  RH WIND       PRES   REMARKS
WISE*          CLOUDY    48  46  93 S12       30.05F
JONESVILLE*    FOG       39  39 100 CALM      30.12F VSB 1/4
ABINGDON*      CLOUDY    45  42  89 E7        30.09F
BRISTOL        LGT RAIN  49  41  74 N3        30.09F
KNOXVILLE      CLOUDY    49  44  83 NW3       30.08F
OAK RIDGE      CLOUDY    47  44  90 W3        30.10F
CROSSVILLE     CLOUDY    52  51  97 S7G17     30.06F FOG
NASHVILLE      CLOUDY    62  56  80 S14G21    30.01F
$$

...KEY TO REMARKS...
VSB - VISIBILITY IN MILES
WCI - WIND CHILL INDEX
HX  - HEAT INDEX

$$



USA.gov is the U.S. government's official web portal to all federal, state and local government web resources and services.